Terminal Aerodrome Forecast
Issued by NWS

Home | Current Version | Previous Version | Text Only | Print | Product List | Glossary On
Versions: 1 2 3 4 5 6 7 8 9 10 11 12 13 14 15 16 17 18
000
FTUS44 KCRP 022328
TAFLRD
TAF
KLRD 022328Z 0300/0324 11008KT P6SM SCT050
     FM030100 11012KT P6SM FEW090
     FM030900 14006KT P6SM SCT010
     FM031400 14007KT P6SM BKN020
     FM031600 15007KT P6SM BKN040=

USA.gov is the U.S. government's official web portal to all federal, state and local government web resources and services.